Tracking 26321 objects as of 27-Nov-2022
HD Live streaming from Space Station
objects crossing your sky now

STARLINK-3868

Track STARLINK-3868 now!
10-day predictions
STARLINK-3868 is classified as:


NORAD ID: 52649
Int'l Code: 2022-052BD
Perigee: 544.8 km
Apogee: 548.9 km
Inclination: 53.2 °
Period: 95.4 minutes
Semi major axis: 6917 km
RCS: Unknown
Launch date: May 14, 2022
Source: United States (US)
Launch site: AIR FORCE EASTERN TEST RANGE (AFETR)
aabbcc
Your satellite tracking list
Your tracking list is empty




NASA's NSSDC Master Catalog

Two Line Element Set (TLE):
1 52649U 22052BD  22330.76480118  .00002075  00000-0  14844-3 0  9990
2 52649  53.2193 241.3125 0002961  25.3751 334.7386 15.08850037 30149
Source of the keplerian elements: AFSPC